Theta_e
307 305 305 306 305 305 305 305 305 306 306 305 308 307 307 308 308 307 307 309 311 310 310 310 315 318 319 320 319 323 344 348 352 348 344 343 342 339 336 334 337 337 336 335
305 306 307 307 306 307 306 306 306 306 307 309 308 309 309 308 307 307 307 310 310 309 311 312 315 317 319 321 320 322 338 348 351 353 350 344 343 340 336 331 332 336 337 336
307 308 308 308 308 308 308 308 307 308 309 308 307 308 308 309 307 308 308 308 308 313 318 319 318 318 319 320 319 322 334 342 348 352 350 348 344 341 336 330 331 333 335 335
307 307 308 307 309 308 309 308 309 310 309 310 308 311 309 308 309 309 313 317 318 319 319 319 319 319 319 320 319 326 330 337 345 352 351 348 345 339 333 329 328 331 331 332
308 308 308 309 309 309 309 308 309 309 308 308 309 306 306 312 316 315 315 316 315 316 317 318 319 320 320 318 319 322 333 338 343 351 351 349 344 339 334 331 330 331 334 333
308 308 308 308 309 308 309 308 308 305 305 304 307 310 309 317 316 314 312 312 311 311 311 315 318 323 323 318 319 323 334 338 344 347 349 349 346 338 336 336 335 336 336 332
308 309 307 309 310 308 307 307 305 306 307 308 307 311 308 316 315 313 311 310 309 309 308 310 314 321 325 322 318 323 335 339 341 344 347 348 345 339 343 343 339 339 339 336
310 312 309 309 310 310 309 310 307 309 309 311 311 313 311 315 312 310 309 308 307 307 307 307 310 313 323 325 321 316 339 341 341 342 342 346 345 341 343 343 342 341 341 342
311 313 309 310 310 310 311 314 313 317 314 316 310 310 314 314 310 308 307 306 305 305 306 306 308 311 319 323 323 322 328 342 341 341 342 343 345 343 343 344 343 342 340 342
311 314 310 311 310 312 311 312 314 309 315 315 312 312 312 313 309 307 307 305 305 304 305 305 304 309 314 319 322 321 324 336 341 340 340 342 343 344 342 342 343 343 340 340
309 312 311 309 310 309 309 312 314 315 313 316 314 313 313 310 308 306 306 305 304 304 305 304 303 304 308 315 318 320 320 325 334 341 342 341 341 342 341 342 342 343 341 341
308 309 314 310 309 309 310 311 312 316 313 316 316 315 311 308 307 307 305 304 304 303 304 304 303 303 306 309 315 318 318 320 325 330 341 344 342 342 342 343 343 343 342 342
309 307 313 307 307 309 312 312 312 313 313 314 316 316 311 310 307 306 304 304 304 303 303 303 302 302 302 306 308 314 316 317 319 325 330 335 344 345 344 343 343 343 344 344
312 310 309 308 311 312 313 312 312 313 313 313 313 312 310 310 307 305 304 304 303 303 303 302 302 302 302 301 305 308 315 315 316 319 325 334 338 348 348 343 342 340 342 342
309 309 306 308 310 310 311 311 312 315 314 313 310 311 311 309 307 305 304 304 303 303 302 302 302 302 301 301 302 305 309 313 314 316 319 323 330 334 337 339 337 341 334 331
308 312 312 314 313 312 311 311 312 312 310 309 310 310 308 306 305 304 304 304 303 303 303 302 302 301 301 301 301 303 306 311 312 314 316 320 321 324 328 333 333 339 337 335
310 313 315 315 311 308 310 313 311 309 308 309 310 309 307 307 305 304 304 304 304 303 302 302 301 301 301 301 301 302 303 306 310 315 315 317 321 321 322 325 334 335 336 338
310 313 313 316 308 306 308 309 309 310 309 308 309 308 306 304 304 303 304 303 303 303 302 301 301 301 302 302 302 303 304 305 309 314 316 315 318 321 321 324 329 339 342 339
306 312 315 307 310 308 306 311 308 309 308 307 307 306 306 303 303 304 303 303 303 303 301 301 301 302 302 303 304 304 304 306 309 313 315 315 317 320 322 323 324 336 337 338
310 311 314 309 311 310 302 309 307 306 308 306 305 306 304 303 304 304 303 303 302 302 301 301 301 301 302 304 305 306 307 308 311 313 315 316 316 320 322 325 324 326 333 338
313 312 314 312 310 311 305 307 305 304 305 304 304 305 303 303 303 303 303 302 302 302 300 301 301 301 301 304 305 307 308 311 314 315 316 316 315 317 321 323 326 323 329 330
309 310 307 309 309 308 306 305 305 305 304 304 305 304 304 303 303 303 302 301 301 301 300 301 301 302 302 303 305 308 312 314 318 322 321 317 316 316 321 322 322 328 330 325
307 306 304 303 304 303 307 308 308 307 305 304 305 304 304 304 303 301 300 300 300 300 300 300 301 302 303 304 305 308 312 317 322 324 324 324 321 320 323 324 323 329 334 330
307 307 307 308 307 304 307 308 307 307 305 304 305 304 304 303 301 300 299 299 300 300 300 300 300 302 302 304 306 309 313 317 322 321 323 324 324 328 321 322 327 332 334 332
303 306 306 305 305 306 308 308 307 306 306 305 305 304 304 302 301 300 298 299 300 300 300 300 300 301 303 303 305 307 312 317 320 322 323 325 325 324 327 330 328 328 330 331
303 304 306 304 306 307 308 307 307 306 307 306 305 303 302 301 301 299 298 299 299 300 300 300 300 300 302 302 305 308 310 313 316 317 319 321 322 322 324 323 323 326 328 329
Wind_Speed
4 4 1 5 5 7 6 5 10 13 8 5 14 19 16 23 24 26 25 30 30 33 33 32 26 25 23 24 27 36 43 48 50 52 55 54 53 48 44 44 45 41 38 34
5 1 4 6 6 3 4 6 7 9 5 9 12 23 19 18 17 29 28 28 33 33 32 33 22 23 22 22 27 34 40 46 51 51 47 50 51 48 43 41 42 41 39 36
4 2 2 2 2 5 3 6 5 9 17 5 6 15 6 17 14 26 29 30 30 19 17 20 16 16 21 21 28 34 39 44 46 50 50 48 50 44 42 41 42 42 39 38
3 3 4 5 1 4 4 2 7 15 7 6 6 12 2 9 14 12 22 26 27 23 23 23 19 13 16 20 28 36 39 42 44 52 50 51 51 48 49 44 43 41 40 39
5 4 5 3 2 3 8 9 12 13 7 4 1 1 6 7 12 17 17 28 31 31 29 29 27 21 16 15 28 34 39 42 43 47 46 48 51 46 44 42 39 38 36 36
5 6 1 2 4 3 10 5 10 2 2 2 4 1 3 4 4 12 21 27 30 35 36 28 29 27 23 6 13 29 39 43 45 46 48 46 49 48 46 43 44 40 36 34
7 5 4 2 5 6 10 7 5 6 4 4 3 5 7 3 4 10 15 26 29 32 35 34 33 35 32 23 9 19 32 41 45 47 48 49 50 50 46 44 41 39 35 34
3 7 4 4 1 3 3 3 3 4 3 8 10 5 5 5 10 15 17 21 24 30 30 34 31 31 32 32 24 6 23 34 43 47 47 49 51 53 50 47 43 38 35 30
2 5 1 7 2 1 2 1 3 5 5 5 4 6 2 6 12 20 20 25 28 29 30 34 34 31 28 30 31 25 6 17 35 44 49 49 51 55 53 48 43 40 35 31
3 6 1 3 2 2 0 1 2 2 5 5 5 5 4 10 15 17 22 30 35 36 39 34 36 31 23 23 25 27 17 4 14 32 42 47 49 53 55 51 46 41 35 32
5 4 5 4 3 3 2 1 1 3 3 3 4 5 3 5 10 13 18 30 31 35 32 37 39 32 26 20 21 22 24 16 4 14 30 38 43 46 48 50 48 42 37 33
6 4 4 9 7 6 5 4 3 3 2 4 4 6 5 5 7 20 25 29 31 29 30 30 37 35 28 22 18 19 19 17 14 1 19 30 37 38 46 47 46 42 40 38
5 1 4 8 5 2 0 4 5 5 4 8 5 4 2 10 15 20 24 30 32 30 28 31 31 32 32 25 21 19 17 15 12 9 3 18 30 34 34 38 42 42 40 34
10 3 7 6 7 8 10 9 10 7 4 5 9 21 13 14 13 19 25 29 27 29 33 29 31 31 30 29 23 21 16 16 12 7 7 7 17 28 31 29 29 30 31 29
7 5 6 10 16 17 17 16 14 11 6 5 9 20 18 9 13 21 26 27 28 30 35 33 33 30 29 30 29 24 19 17 16 11 3 6 9 9 22 29 30 31 29 28
2 4 4 7 14 11 14 13 12 7 5 11 15 20 6 18 21 22 26 25 27 30 37 34 36 32 30 27 26 27 22 18 20 15 9 4 6 7 7 10 28 31 31 30
6 2 2 6 4 9 5 7 8 4 6 7 10 9 8 11 15 22 27 29 28 32 37 35 37 33 32 30 27 26 23 21 20 14 13 9 5 7 4 5 16 31 34 31
5 3 2 5 6 3 3 2 3 8 11 12 10 8 11 16 22 28 24 25 31 32 39 35 36 38 36 31 27 27 24 22 19 16 11 9 9 8 6 2 5 28 32 33
6 4 3 2 2 8 3 4 4 4 9 4 3 7 13 19 25 14 20 29 36 32 36 36 36 36 34 30 25 24 22 19 18 15 12 8 9 12 10 7 3 14 28 30
5 2 3 2 2 4 6 3 3 2 6 7 4 8 9 16 6 9 32 33 34 34 36 37 36 33 28 26 22 19 20 17 17 13 10 10 11 13 18 18 13 7 16 25
4 3 7 3 4 7 6 5 5 3 5 6 8 10 9 5 11 29 32 33 34 34 38 34 33 33 28 23 18 16 16 16 9 11 12 12 13 18 18 20 20 19 17 17
7 7 5 3 4 8 11 5 5 4 4 6 8 11 13 20 25 26 27 30 36 35 36 33 33 34 31 23 17 13 9 8 6 8 11 15 18 20 21 21 25 27 25 23
3 7 5 9 6 5 18 11 9 11 12 8 9 13 15 19 19 22 26 28 32 31 34 33 31 34 33 27 21 17 10 4 2 4 7 11 15 20 21 20 26 27 30 30
4 6 4 1 3 6 14 16 16 11 11 9 9 13 13 15 19 22 26 27 28 32 34 32 31 34 35 31 25 19 15 9 1 4 6 8 12 17 19 19 21 27 30 34
6 7 5 5 7 12 19 17 11 8 8 9 9 12 13 14 19 21 25 23 25 29 30 29 29 31 32 32 28 22 16 12 6 2 6 7 9 11 14 18 22 26 30 31
9 7 5 6 10 6 7 4 4 8 6 7 9 11 10 14 18 20 21 17 21 27 26 29 28 29 30 34 30 24 21 17 9 2 3 5 8 10 10 13 17 20 22 26
Wind_Direction
356 55 90 263 229 231 265 260 258 284 278 320 300 286 286 282 281 286 278 284 287 295 300 303 288 293 283 260 248 243 234 226 220 219 221 222 226 227 228 224 223 220 221 221
5 187 194 286 293 293 288 287 279 282 295 302 293 289 283 294 277 274 274 280 282 292 308 304 299 288 285 252 247 240 236 228 223 221 223 225 228 228 228 225 224 224 224 223
203 214 279 1 71 25 284 263 293 289 316 231 291 286 342 312 285 288 294 284 288 302 328 330 313 295 286 245 234 238 233 230 225 221 219 221 225 224 227 226 224 223 223 226
222 288 0 336 95 39 309 279 306 306 332 302 69 292 357 343 354 354 357 0 351 340 355 357 348 328 311 252 227 242 235 230 225 220 217 215 220 219 221 218 220 221 222 225
267 305 342 342 342 338 250 305 274 283 271 335 272 257 275 6 359 347 348 351 350 350 342 1 0 359 342 263 226 232 236 233 226 222 219 218 220 222 223 223 218 216 220 223
258 306 220 252 328 289 296 336 320 59 104 19 238 133 273 5 329 344 345 343 345 341 341 353 9 10 10 291 235 225 231 231 226 224 220 219 221 218 219 222 221 216 217 219
326 329 327 65 334 343 16 17 342 353 360 234 222 316 247 211 39 29 339 334 338 337 339 345 359 13 12 16 335 222 232 230 227 225 221 220 222 220 221 224 220 219 218 218
21 325 5 358 102 282 336 100 145 286 283 292 282 234 263 133 52 7 350 331 336 337 338 349 348 1 9 17 17 318 221 236 230 226 227 221 223 223 223 225 227 224 220 219
344 262 239 316 321 187 311 96 147 272 269 272 251 287 287 33 3 359 346 344 344 338 342 353 351 356 8 11 18 23 226 238 235 233 229 226 222 225 226 228 230 232 230 226
225 287 252 288 4 50 241 205 15 325 294 283 270 274 249 1 350 345 347 343 340 339 345 351 350 356 2 359 8 22 37 246 225 231 230 233 228 227 228 230 232 231 235 237
165 183 286 352 184 188 335 167 229 258 223 284 302 259 91 28 358 342 337 332 336 334 338 339 348 345 338 348 349 6 23 39 225 221 230 230 234 231 228 231 233 236 238 243
209 175 270 257 284 236 193 190 170 256 273 254 267 278 109 69 356 353 337 329 330 335 336 337 340 342 338 332 333 345 359 20 41 179 227 230 233 233 232 233 235 237 239 248
177 264 299 333 358 19 207 228 248 241 256 252 278 271 125 12 349 347 333 326 325 331 337 336 337 337 337 333 322 316 333 349 12 41 198 230 228 232 232 233 235 237 239 244
178 192 201 218 251 283 278 250 265 255 241 294 259 289 317 338 338 334 325 326 324 328 334 331 332 328 330 321 322 306 301 316 335 347 76 119 209 219 230 232 235 235 237 236
147 221 202 247 258 271 269 270 258 247 242 255 299 294 308 331 331 316 317 318 320 324 330 327 329 322 323 321 310 301 293 293 309 307 291 109 127 196 224 229 225 231 237 238
179 262 218 267 271 272 275 264 262 224 251 269 291 292 357 333 320 319 319 319 318 328 326 324 324 320 317 315 308 303 294 292 290 291 285 213 140 134 111 233 234 230 230 233
165 209 275 278 338 312 288 216 170 212 237 283 289 294 332 318 323 319 316 314 311 323 328 325 322 318 314 315 305 296 288 280 280 285 279 262 198 154 132 27 228 224 224 225
168 160 216 285 353 330 249 101 204 229 267 270 268 298 312 314 310 312 315 331 323 318 329 323 324 324 322 317 306 297 287 275 270 262 265 268 233 203 202 162 264 222 221 222
182 138 265 262 244 289 289 205 199 254 297 237 252 301 299 315 313 302 325 330 329 324 329 327 330 327 322 314 307 295 280 265 257 253 256 255 219 220 213 194 223 223 217 216
139 129 203 158 269 265 236 186 163 228 274 182 300 286 311 323 314 316 327 329 333 329 335 332 336 332 328 322 311 294 282 260 247 251 251 245 223 206 210 207 215 218 224 218
159 164 228 198 241 273 224 156 139 84 255 199 280 296 298 298 284 305 324 334 335 329 335 336 341 346 346 338 319 296 284 265 246 238 234 229 228 218 216 221 214 218 219 212
174 171 198 172 216 257 162 128 165 215 265 279 297 305 300 307 316 322 335 339 337 340 344 345 348 353 356 354 345 328 291 270 236 231 234 224 221 221 221 220 221 224 227 219
228 192 179 180 215 221 191 220 238 275 277 281 288 303 314 315 321 331 336 341 337 346 346 350 353 359 3 2 4 1 352 351 188 243 262 246 234 229 222 224 222 223 223 217
246 180 205 116 230 216 241 253 270 253 267 276 289 301 317 317 323 333 337 341 343 349 354 356 0 4 5 8 8 7 10 27 21 310 306 249 232 229 218 218 220 221 214 216
210 148 196 260 281 278 269 265 263 249 260 278 290 297 304 315 323 329 337 341 347 351 358 2 7 9 8 10 10 14 22 20 11 305 254 238 229 227 219 218 220 217 217 224
185 195 181 227 231 223 270 283 231 232 260 271 275 294 308 321 324 329 335 342 348 352 3 7 14 14 13 15 11 14 24 25 21 23 181 212 239 229 223 224 220 218 221 226